Weather History for Statesboro, GA

Change the Weather History Date:

Wednesday, October 24, 2012

  Actual Average (KSAV) Record (KSAV)
Temperature  
Mean Temperature 68 °F 66 °F  
Max Temperature 84 °F 76 °F 89 °F (1927)
Min Temperature 53 °F 55 °F 36 °F (1937)
Degree Days  
Heating Degree Days 0 3  
Month to date heating degree days 34  
Since 1 July heating degree days 36  
Cooling Degree Days 4 3  
Month to date cooling degree days 129  
Year to date cooling degree days 2395  
Growing Degree Days 18 (Base 50)    
Moisture  
Dew Point 58 °F    
Average Humidity 77    
Maximum Humidity 100    
Minimum Humidity 37    
Precipitation  
Precipitation 0.00 in 0.10 in 3.61 in (2008)
Month to date precipitation 3.12  
Year to date precipitation 42.07  
Sea Level Pressure  
Sea Level Pressure 30.12 in    
Wind  
Wind Speed 1 mph (East)    
Max Wind Speed 9 mph    
Max Gust Speed -    
Visibility 8 miles    
Events Fog    
T = Trace of Precipitation, MM = Missing Value Source: NWS Daily Summary

Daily Weather History Graph

Daily Weather History Graph

Search for Another Location

Airport:

Trip Planner

Search our weather history database for the weather conditions in past years. The results will help you decide how hot, cold, wet, or windy it might be!

Date:

Astronomy

Oct. 24, 2012 Rise Set
Actual Time 7:38 AM EDT 6:43 PM EDT
Civil Twilight 7:12 AM EDT 7:08 PM EDT
Nautical Twilight 6:44 AM EDT 7:37 PM EDT
Astronomical Twilight 6:15 AM EDT 8:05 PM EDT
Moon 3:44 PM EDT (10/24) 2:47 AM EDT (10/24)
Length of Visible Light 11h 55m
Length of Day
11h 05m
Waxing Gibbous, 76% of the Moon is Illuminated
Oct 24
Waxing Gibbous
Oct 29
Full
Nov 6
Last Quarter
Nov 13
New
Nov 20
First Quarter

Hourly Weather History & Observations

Time (EDT) Temp. Heat Index Dew Point Humidity Pressure Visibility Wind Dir Wind Speed Gust Speed Precip Events Conditions
12:15 AM 57.2 °F - 57.2 °F 100% 30.15 in 1.5 mi Calm Calm - N/A   Mist
12:35 AM 57.2 °F - 57.2 °F 100% 30.15 in 7.0 mi Calm Calm - N/A   Scattered Clouds
12:55 AM 57.2 °F - 57.2 °F 100% 30.15 in 10.0 mi Calm Calm - N/A   Clear
1:15 AM 55.4 °F - 55.4 °F 100% 30.15 in 10.0 mi Calm Calm - N/A   Clear
1:35 AM 55.4 °F - 55.4 °F 100% 30.14 in 10.0 mi Calm Calm - N/A   Clear
1:55 AM 55.4 °F - 55.4 °F 100% 30.14 in 10.0 mi Calm Calm - N/A   Scattered Clouds
2:15 AM 55.4 °F - 55.4 °F 100% 30.13 in 1.0 mi Calm Calm - N/A   Mostly Cloudy
2:35 AM 55.4 °F - 55.4 °F 100% 30.13 in 10.0 mi Calm Calm - N/A   Scattered Clouds
2:55 AM 55.4 °F - 55.4 °F 100% 30.12 in 2.5 mi Calm Calm - N/A   Clear
3:15 AM 55.4 °F - 55.4 °F 100% 30.12 in 7.0 mi Calm Calm - N/A   Clear
3:35 AM 55.4 °F - 55.4 °F 100% 30.12 in 2.0 mi Calm Calm - N/A   Clear
3:55 AM 53.6 °F - 53.6 °F 100% 30.12 in 4.0 mi Calm Calm - N/A   Clear
4:15 AM 53.6 °F - 53.6 °F 100% 30.12 in 5.0 mi Calm Calm - N/A   Clear
4:55 AM 53.6 °F - 53.6 °F 100% 30.12 in 2.0 mi Calm Calm - N/A   Overcast
5:15 AM 53.6 °F - 53.6 °F 100% 30.12 in 10.0 mi Calm Calm - N/A   Mostly Cloudy
5:35 AM 53.6 °F - 53.6 °F 100% 30.13 in 7.0 mi Calm Calm - N/A   Overcast
5:55 AM 53.6 °F - 53.6 °F 100% 30.13 in 0.2 mi Calm Calm - N/A Fog Fog
6:15 AM 53.6 °F - 53.6 °F 100% 30.14 in 0.2 mi Calm Calm - N/A Fog Fog
6:35 AM 53.6 °F - 53.6 °F 100% 30.15 in 0.5 mi Calm Calm - N/A Fog Fog
6:55 AM 53.6 °F - 53.6 °F 100% 30.15 in 0.2 mi Calm Calm - N/A Fog Fog
7:15 AM 53.6 °F - 53.6 °F 100% 30.15 in 0.2 mi Calm Calm - N/A Fog Fog
7:35 AM 53.6 °F - 53.6 °F 100% 30.16 in 0.2 mi Calm Calm - N/A Fog Fog
8:15 AM 53.6 °F - 53.6 °F 100% 30.17 in 1.8 mi Calm Calm - N/A   Mostly Cloudy
8:35 AM 57.2 °F - 57.2 °F 100% 30.17 in 5.0 mi Calm Calm - N/A   Clear
9:15 AM 62.6 °F - 62.6 °F 100% 30.18 in 10.0 mi NNE 4.6 mph - N/A   Clear
9:35 AM 64.4 °F - 64.4 °F 100% 30.18 in 10.0 mi NNE 4.6 mph - N/A   Clear
9:55 AM 68.0 °F - 62.6 °F 83% 30.18 in 10.0 mi Calm Calm - N/A   Unknown
10:15 AM 71.6 °F - 60.8 °F 69% 30.18 in 10.0 mi ENE 4.6 mph - N/A   Clear
10:35 AM 73.4 °F - 60.8 °F 65% 30.18 in 10.0 mi NE 4.6 mph - N/A   Clear
10:55 AM 75.2 °F - 60.8 °F 61% 30.17 in 10.0 mi NE 3.5 mph - N/A   Clear
11:15 AM 77.0 °F - 60.8 °F 57% 30.16 in 10.0 mi East 6.9 mph - N/A   Clear
11:35 AM 78.8 °F - 60.8 °F 54% 30.16 in 10.0 mi East 8.1 mph - N/A   Clear
11:55 AM 78.8 °F - 60.8 °F 54% 30.15 in 10.0 mi NE 6.9 mph - N/A   Clear
12:15 PM 80.6 °F 81.1 °F 59.0 °F 48% 30.15 in 10.0 mi ENE 6.9 mph - N/A   Clear
12:35 PM 82.4 °F 82.5 °F 59.0 °F 45% 30.14 in 10.0 mi NE 8.1 mph - N/A   Scattered Clouds
12:55 PM 80.6 °F 81.1 °F 59.0 °F 48% 30.13 in 10.0 mi NNE 5.8 mph - N/A   Mostly Cloudy
1:15 PM 80.6 °F 81.1 °F 59.0 °F 48% 30.12 in 10.0 mi East 3.5 mph - N/A   Mostly Cloudy
1:35 PM 80.6 °F 81.1 °F 59.0 °F 48% 30.11 in 10.0 mi SE 5.8 mph - N/A   Scattered Clouds
1:55 PM 82.4 °F 82.5 °F 59.0 °F 45% 30.10 in 10.0 mi ENE 6.9 mph - N/A   Scattered Clouds
2:15 PM 80.6 °F 81.1 °F 59.0 °F 48% 30.09 in 10.0 mi ESE 5.8 mph - N/A   Scattered Clouds
2:35 PM 84.2 °F 83.8 °F 59.0 °F 42% 30.08 in 10.0 mi ENE 5.8 mph - N/A   Mostly Cloudy
2:55 PM 82.4 °F 82.0 °F 57.2 °F 42% 30.08 in 10.0 mi Calm Calm - N/A   Scattered Clouds
3:15 PM 80.6 °F 81.1 °F 59.0 °F 48% 30.07 in 10.0 mi East 6.9 mph - N/A   Mostly Cloudy
3:35 PM 80.6 °F 81.1 °F 59.0 °F 48% 30.07 in 10.0 mi Calm Calm - N/A   Scattered Clouds
3:55 PM 84.2 °F 83.5 °F 57.2 °F 40% 30.06 in 10.0 mi East 9.2 mph - N/A   Mostly Cloudy
4:15 PM 84.2 °F 83.0 °F 55.4 °F 37% 30.06 in 10.0 mi East 6.9 mph - N/A   Mostly Cloudy
4:35 PM 80.6 °F 80.8 °F 57.2 °F 45% 30.06 in 10.0 mi SE 3.5 mph - N/A   Scattered Clouds
4:55 PM 82.4 °F 82.5 °F 59.0 °F 45% 30.06 in 10.0 mi SE 3.5 mph - N/A   Clear
5:15 PM 82.4 °F 81.7 °F 55.4 °F 39% 30.06 in 10.0 mi East 6.9 mph - N/A   Clear
5:35 PM 80.6 °F 80.8 °F 57.2 °F 45% 30.06 in 10.0 mi SE 5.8 mph - N/A   Clear
5:55 PM 80.6 °F 81.1 °F 59.0 °F 48% 30.06 in 10.0 mi SE 3.5 mph - N/A   Clear
6:15 PM 78.8 °F - 59.0 °F 51% 30.06 in 10.0 mi ESE 3.5 mph - N/A   Clear
6:35 PM 77.0 °F - 59.0 °F 54% 30.06 in 10.0 mi Calm Calm - N/A   Clear
6:55 PM 75.2 °F - 60.8 °F 61% 30.07 in 10.0 mi Calm Calm - N/A   Clear
7:15 PM 71.6 °F - 60.8 °F 69% 30.07 in 10.0 mi Calm Calm - N/A   Clear
7:35 PM 69.8 °F - 60.8 °F 73% 30.08 in 10.0 mi Calm Calm - N/A   Clear
7:55 PM 69.8 °F - 60.8 °F 73% 30.08 in 10.0 mi Calm Calm - N/A   Clear
8:35 PM 69.8 °F - 60.8 °F 73% 30.09 in 10.0 mi Calm Calm - N/A   Clear
8:55 PM 68.0 °F - 60.8 °F 78% 30.10 in 10.0 mi Calm Calm - N/A   Clear
9:15 PM 68.0 °F - 60.8 °F 78% 30.10 in 10.0 mi Calm Calm - N/A   Clear
9:35 PM 64.4 °F - 60.8 °F 88% 30.11 in 10.0 mi Calm Calm - N/A   Clear
9:55 PM 64.4 °F - 60.8 °F 88% 30.11 in 10.0 mi Calm Calm - N/A   Clear
10:15 PM 64.4 °F - 60.8 °F 88% 30.11 in 10.0 mi Calm Calm - N/A   Clear
10:35 PM 62.6 °F - 62.6 °F 100% 30.11 in 10.0 mi Calm Calm - N/A   Clear
10:55 PM 62.6 °F - 62.6 °F 100% 30.10 in 10.0 mi Calm Calm - N/A   Clear
11:35 PM 60.8 °F - 60.8 °F 100% 30.10 in 10.0 mi Calm Calm - N/A   Clear
11:55 PM 62.6 °F - 62.6 °F 100% 30.10 in 10.0 mi Calm Calm - N/A   Clear